Weather History for Clinton-Sherman, OK

Change the Weather History Date:

Monday, October 21, 2013

  Actual Average Record
Temperature  
Mean Temperature 54 °F -  
Max Temperature 63 °F 69 °F 95 °F (2012)
Min Temperature 45 °F 47 °F 35 °F (2006)
Degree Days  
Heating Degree Days 10    
Growing Degree Days 4 (Base 50)    
Moisture  
Dew Point 39 °F    
Average Humidity 61    
Maximum Humidity 86    
Minimum Humidity 35    
Precipitation  
Precipitation 0.00 in - - ()
Sea Level Pressure  
Sea Level Pressure 30.07 in    
Wind  
Wind Speed 13 mph (NNE)    
Max Wind Speed 22 mph    
Max Gust Speed 28 mph    
Visibility 10 miles    
Events      
Averages and records for this station are not official NWS values.
T = Trace of Precipitation, MM = Missing Value Source: NWS Daily Summary

Daily Weather History Graph

Daily Weather History Graph

Search for Another Location

Airport:

Trip Planner

Search our weather history database for the weather conditions in past years. The results will help you decide how hot, cold, wet, or windy it might be!

Date:

Astronomy

Oct. 21, 2013 Rise Set
Actual Time 7:48 AM CDT 6:53 PM CDT
Civil Twilight 7:22 AM CDT 7:19 PM CDT
Nautical Twilight 6:52 AM CDT 7:49 PM CDT
Astronomical Twilight 6:23 AM CDT 8:18 PM CDT
Moon 8:53 PM CDT (10/21) 10:19 AM CDT (10/21)
Length of Visible Light 11h 56m
Length of Day
11h 05m
Waning Gibbous, 92% of the Moon is Illuminated
Oct 21
Waning Gibbous
Oct 26
Last Quarter
Nov 3
New
Nov 9
First Quarter
Nov 17
Full

Hourly Weather History & Observations

Time (CDT) Temp. Windchill Dew Point Humidity Pressure Visibility Wind Dir Wind Speed Gust Speed Precip Events Conditions
12:53 AM 52.0 °F - 48.0 °F 86% 29.91 in 10.0 mi North 10.4 mph - N/A   Mostly Cloudy
1:53 AM 53.1 °F - 48.0 °F 83% 29.92 in 10.0 mi North 10.4 mph - N/A   Mostly Cloudy
2:53 AM 51.1 °F - 43.0 °F 74% 29.94 in 10.0 mi North 11.5 mph - N/A   Clear
3:53 AM 50.0 °F - 42.1 °F 74% 29.95 in 10.0 mi North 12.7 mph - N/A   Clear
4:53 AM 50.0 °F - 42.1 °F 74% 29.96 in 10.0 mi North 15.0 mph - N/A   Clear
5:53 AM 50.0 °F - 42.1 °F 74% 29.98 in 10.0 mi North 18.4 mph 25.3 mph N/A   Clear
6:53 AM 48.9 °F - 41.0 °F 74% 30.01 in 10.0 mi North 19.6 mph - N/A   Clear
7:53 AM 50.0 °F - 39.9 °F 68% 30.04 in 10.0 mi NNE 19.6 mph - N/A   Clear
8:53 AM 50.0 °F - 39.0 °F 66% 30.08 in 10.0 mi NNE 21.9 mph 27.6 mph N/A   Clear
9:53 AM 52.0 °F - 37.9 °F 59% 30.12 in 10.0 mi NNE 20.7 mph - N/A   Clear
10:53 AM 53.1 °F - 36.0 °F 52% 30.14 in 10.0 mi NNE 20.7 mph - N/A   Clear
11:53 AM 55.9 °F - 35.1 °F 45% 30.16 in 10.0 mi NNE 20.7 mph - N/A   Clear
12:53 PM 55.9 °F - 32.0 °F 40% 30.16 in 10.0 mi NNE 16.1 mph 23.0 mph N/A   Clear
1:53 PM 60.1 °F - 34.0 °F 38% 30.13 in 10.0 mi North 16.1 mph - N/A   Clear
2:53 PM 61.0 °F - 34.0 °F 36% 30.11 in 10.0 mi North 13.8 mph - N/A   Clear
3:53 PM 62.1 °F - 34.0 °F 35% 30.10 in 10.0 mi NNE 13.8 mph - N/A   Clear
4:53 PM 63.0 °F - 35.1 °F 35% 30.11 in 10.0 mi North 13.8 mph - N/A   Clear
5:53 PM 61.0 °F - 35.1 °F 38% 30.11 in 10.0 mi NNE 9.2 mph - N/A   Clear
6:53 PM 57.0 °F - 37.0 °F 47% 30.12 in 10.0 mi NE 3.5 mph - N/A   Clear
7:53 PM 52.0 °F - 37.9 °F 59% 30.14 in 10.0 mi Calm Calm - N/A   Clear
8:53 PM 46.9 °F - 41.0 °F 80% 30.15 in 10.0 mi Calm Calm - N/A   Clear
9:53 PM 48.9 °F - 39.0 °F 69% 30.14 in 10.0 mi SSE 4.6 mph - N/A   Clear
10:53 PM 46.9 °F - 37.9 °F 71% 30.16 in 10.0 mi South 5.8 mph - N/A   Clear
11:53 PM 45.0 °F 40.6 °F 39.0 °F 80% 30.15 in 10.0 mi SW 8.1 mph - N/A   Clear